{"data":{"norad_id":39533,"intl_designator":"2014-008A","name":"GPS BIIF-5  (PRN 30)","alt_names":[],"object_type":"PAYLOAD","status":"ACTIVE","operator":null,"country":"US","launch_date":"2014-02-21","launch_site_code":"AFETR","launch_vehicle":null,"mission":null,"orbit_class":"UNKNOWN","rcs_meters":19.9413,"size_class":null,"mass_kg":null,"dimensions":null,"purposes":["earth_obs","nav"],"wikipedia_slug":null,"has_3d_model":false,"image_url":null,"decayed_at":null,"tle_current":{"epoch":"2026-09-19T21:57:08.937792Z","epoch_age_seconds":65115,"freshness":"FRESH","line1":"1 39533U 14008A   26262.91468678 -.00000017  00000+0  00000+0 0  9990","line2":"2 39533  53.6634 145.4534 0083595 231.5511 127.7665  2.00566052 91589","mean_motion":2.00566052,"eccentricity":0.0083595,"inclination_deg":53.6634,"raan_deg":145.4534,"arg_perigee_deg":231.5511,"mean_anomaly_deg":127.7665,"bstar":0,"rev_number":9158,"period_min":717.96796399024,"perigee_km":19959.965275432,"apogee_km":20404.024117263,"semimajor_km":26560.131696347,"source":"CELESTRAK","updated_at":"2026-09-20T09:00:46.116760Z"}}}